Previsão horária em Plessy

Hoje, 7 Março, Domingo

Tempo Temperatura Precipitação Vento Pressão Humidade
00:00 -5°C° 0.1 mm 8 m/s 744 mmHg 78%
01:00 -4°C° 0.1 mm 8 m/s 742 mmHg 82%
02:00 -4°C° 0 mm 8 m/s 741 mmHg 86%
03:00 -4°C° 0.8 mm 8 m/s 741 mmHg 86%
04:00 -5°C° 0.8 mm 8 m/s 740 mmHg 86%
05:00 -5°C° 0.8 mm 8 m/s 740 mmHg 86%
06:00 -5°C° 0.1 mm 6 m/s 739 mmHg 79%
07:00 -4°C° 0.1 mm 4 m/s 739 mmHg 73%
08:00 -5°C° 0 mm 3 m/s 740 mmHg 67%
09:00 -5°C° 0.1 mm 4 m/s 739 mmHg 71%
10:00 -5°C° 0.1 mm 4 m/s 739 mmHg 76%
11:00 -6°C° 0.1 mm 5 m/s 739 mmHg 81%
12:00 -5°C° 0.9 mm 5 m/s 739 mmHg 73%
13:00 -5°C° 0.9 mm 6 m/s 739 mmHg 66%
14:00 -6°C° 0 mm 7 m/s 739 mmHg 57%
15:00 -5°C° 0.1 mm 6 m/s 739 mmHg 64%
16:00 -6°C° 0.1 mm 5 m/s 740 mmHg 71%
17:00 -6°C° 0.1 mm 5 m/s 740 mmHg 78%
18:00 -7°C° 0.3 mm 5 m/s 740 mmHg 82%
19:00 -7°C° 0.3 mm 5 m/s 740 mmHg 86%
20:00 -7°C° 0.3 mm 5 m/s 741 mmHg 90%
21:00 -8°C° 0.2 mm 4 m/s 741 mmHg 90%
22:00 -7°C° 0.2 mm 3 m/s 741 mmHg 90%
23:00 -8°C° 0.2 mm 3 m/s 741 mmHg 90%

Amanhã, 8 Março, Segunda-feira

Tempo Temperatura Precipitação Vento Pressão Humidade
00:00 -8°C° 0 mm 3 m/s 742 mmHg 89%
01:00 -9°C° 0 mm 3 m/s 743 mmHg 88%
02:00 -10°C° 0 mm 3 m/s 743 mmHg 87%
03:00 -10°C° 0 mm 3 m/s 744 mmHg 88%
04:00 -10°C° 0 mm 3 m/s 744 mmHg 89%
05:00 -10°C° 0 mm 3 m/s 745 mmHg 91%
06:00 -11°C° 0 mm 4 m/s 746 mmHg 89%
07:00 -11°C° 0 mm 4 m/s 747 mmHg 88%
08:00 -12°C° 0 mm 4 m/s 747 mmHg 86%
09:00 -11°C° 0 mm 4 m/s 748 mmHg 84%
10:00 -11°C° 0 mm 4 m/s 749 mmHg 81%
11:00 -10°C° 0 mm 4 m/s 749 mmHg 79%
12:00 -10°C° 0 mm 4 m/s 750 mmHg 77%
13:00 -9°C° 0 mm 4 m/s 751 mmHg 76%
14:00 -9°C° 0 mm 4 m/s 751 mmHg 75%
15:00 -9°C° 0 mm 4 m/s 752 mmHg 75%
16:00 -8°C° 0 mm 3 m/s 752 mmHg 75%
17:00 -8°C° 0 mm 3 m/s 753 mmHg 75%
18:00 -9°C° 0 mm 2 m/s 753 mmHg 80%
19:00 -10°C° 0 mm 2 m/s 754 mmHg 84%
20:00 -12°C° 0 mm 2 m/s 755 mmHg 88%
21:00 -12°C° 0 mm 2 m/s 755 mmHg 90%
22:00 -13°C° 0 mm 2 m/s 755 mmHg 92%
23:00 -11°C° 0 mm 1 m/s 755 mmHg 93%

Depois de amanhã, 9 Março, Terça-feira

Tempo Temperatura Precipitação Vento Pressão Humidade
00:00 -12°C° 0 mm 1 m/s 756 mmHg 94%
01:00 -12°C° 0 mm 1 m/s 756 mmHg 94%
02:00 -13°C° 0 mm 1 m/s 756 mmHg 95%
03:00 -13°C° 0 mm 1 m/s 757 mmHg 95%
04:00 -13°C° 0 mm 1 m/s 757 mmHg 95%
05:00 -13°C° 0 mm 1 m/s 757 mmHg 95%
06:00 -13°C° 0 mm 1 m/s 757 mmHg 92%
07:00 -12°C° 0 mm 1 m/s 757 mmHg 90%
08:00 -12°C° 0 mm 1 m/s 758 mmHg 87%
09:00 -10°C° 0 mm 1 m/s 758 mmHg 82%
10:00 -8°C° 0 mm 1 m/s 758 mmHg 77%
11:00 -7°C° 0 mm 1 m/s 757 mmHg 72%
12:00 -6°C° 0.1 mm 1 m/s 757 mmHg 77%
13:00 -6°C° 0.1 mm 1 m/s 757 mmHg 82%
14:00 -6°C° 0.1 mm 1 m/s 757 mmHg 87%
15:00 -7°C° 0.5 mm 2 m/s 757 mmHg 89%
16:00 -8°C° 0.5 mm 3 m/s 756 mmHg 91%
17:00 -8°C° 0.5 mm 3 m/s 756 mmHg 94%
18:00 -8°C° 0.9 mm 3 m/s 756 mmHg 93%
19:00 -8°C° 0.9 mm 3 m/s 756 mmHg 92%
20:00 -7°C° 0.9 mm 3 m/s 756 mmHg 91%
21:00 -8°C° 0.6 mm 3 m/s 756 mmHg 92%
22:00 -9°C° 0.6 mm 3 m/s 756 mmHg 92%
23:00 -9°C° 0.6 mm 3 m/s 756 mmHg 93%

10 Março, Quarta-feira

Tempo Temperatura Precipitação Vento Pressão Humidade
00:00 -11°C° 0.7 mm 4 m/s 757 mmHg 93%
01:00 -11°C° 0.7 mm 4 m/s 757 mmHg 93%
02:00 -12°C° 0.7 mm 4 m/s 757 mmHg 93%
03:00 -12°C° 0.4 mm 4 m/s 757 mmHg 93%
04:00 -14°C° 0.4 mm 4 m/s 758 mmHg 93%
05:00 -14°C° 0.4 mm 4 m/s 758 mmHg 92%
06:00 -14°C° 0.2 mm 4 m/s 758 mmHg 92%
07:00 -15°C° 0.2 mm 4 m/s 759 mmHg 91%
08:00 -15°C° 0.2 mm 4 m/s 759 mmHg 90%
09:00 -14°C° 0 mm 5 m/s 760 mmHg 87%
10:00 -14°C° 0 mm 5 m/s 760 mmHg 84%
11:00 -13°C° 0 mm 5 m/s 761 mmHg 81%
12:00 -12°C° 0 mm 5 m/s 761 mmHg 76%
13:00 -11°C° 0 mm 5 m/s 761 mmHg 72%
14:00 -11°C° 0 mm 5 m/s 761 mmHg 67%
15:00 -11°C° 0 mm 5 m/s 761 mmHg 69%
16:00 -11°C° 0 mm 4 m/s 762 mmHg 70%
17:00 -11°C° 0 mm 4 m/s 762 mmHg 72%
18:00 -12°C° 0 mm 4 m/s 762 mmHg 74%
19:00 -14°C° 0 mm 4 m/s 762 mmHg 77%
20:00 -15°C° 0 mm 4 m/s 763 mmHg 79%
21:00 -16°C° 0 mm 4 m/s 763 mmHg 80%
22:00 -17°C° 0 mm 4 m/s 763 mmHg 81%
23:00 -18°C° 0 mm 4 m/s 763 mmHg 82%

11 Março, Quinta-feira

Tempo Temperatura Precipitação Vento Pressão Humidade
00:00 -18°C° 0 mm 4 m/s 763 mmHg 82%
01:00 -19°C° 0 mm 4 m/s 763 mmHg 83%
02:00 -18°C° 0 mm 3 m/s 763 mmHg 84%
03:00 -19°C° 0 mm 4 m/s 763 mmHg 84%
04:00 -20°C° 0 mm 4 m/s 762 mmHg 85%
05:00 -20°C° 0 mm 4 m/s 762 mmHg 85%
06:00 -19°C° 0 mm 4 m/s 762 mmHg 85%
07:00 -19°C° 0 mm 4 m/s 762 mmHg 85%
08:00 -18°C° 0 mm 4 m/s 762 mmHg 84%
09:00 -17°C° 0 mm 4 m/s 761 mmHg 85%
10:00 -15°C° 0 mm 4 m/s 761 mmHg 86%
11:00 -12°C° 0 mm 4 m/s 761 mmHg 87%
12:00 -11°C° 0 mm 4 m/s 760 mmHg 86%
13:00 -10°C° 0 mm 4 m/s 760 mmHg 86%
14:00 -10°C° 0 mm 5 m/s 759 mmHg 86%
15:00 -8°C° 0 mm 5 m/s 759 mmHg 86%
16:00 -8°C° 0 mm 5 m/s 758 mmHg 87%
17:00 -8°C° 0 mm 5 m/s 757 mmHg 87%
18:00 -8°C° 0 mm 5 m/s 757 mmHg 87%
19:00 -10°C° 0 mm 5 m/s 756 mmHg 88%
20:00 -10°C° 0 mm 6 m/s 756 mmHg 88%
21:00 -10°C° 0 mm 6 m/s 755 mmHg 87%
22:00 -9°C° 0 mm 6 m/s 755 mmHg 87%
23:00 -9°C° 0 mm 6 m/s 754 mmHg 86%

12 Março, Sexta-feira

Tempo Temperatura Precipitação Vento Pressão Humidade
00:00 -9°C° 0 mm 6 m/s 753 mmHg 85%
01:00 -8°C° 0 mm 7 m/s 752 mmHg 84%
02:00 -8°C° 0 mm 7 m/s 751 mmHg 84%
03:00 -8°C° 0.1 mm 7 m/s 750 mmHg 85%
04:00 -8°C° 0.1 mm 8 m/s 749 mmHg 86%
05:00 -8°C° 0.1 mm 8 m/s 748 mmHg 88%
06:00 -8°C° 0.6 mm 8 m/s 747 mmHg 88%
07:00 -7°C° 0.6 mm 8 m/s 747 mmHg 89%
08:00 -7°C° 0.6 mm 8 m/s 746 mmHg 90%
09:00 -7°C° 0.3 mm 8 m/s 745 mmHg 89%
10:00 -6°C° 0.3 mm 8 m/s 745 mmHg 88%
11:00 -4°C° 0.3 mm 7 m/s 745 mmHg 88%
12:00 -4°C° 0.3 mm 7 m/s 744 mmHg 90%
13:00 -3°C° 0.3 mm 6 m/s 744 mmHg 93%
14:00 -3°C° 0.3 mm 6 m/s 744 mmHg 95%
15:00 -1°C° 0.3 mm 5 m/s 743 mmHg 96%
16:00 -1°C° 0.3 mm 4 m/s 743 mmHg 97%
17:00 +1°C° 0.3 mm 3 m/s 743 mmHg 97%
18:00 +1°C° 0.2 mm 3 m/s 743 mmHg 97%
19:00 0°C° 0.2 mm 3 m/s 743 mmHg 97%
20:00 0°C° 0.2 mm 3 m/s 743 mmHg 98%
21:00 -1°C° 0.1 mm 4 m/s 743 mmHg 96%
22:00 -1°C° 0.1 mm 4 m/s 743 mmHg 95%
23:00 -1°C° 0.1 mm 4 m/s 744 mmHg 94%
Mostrar mais

Necessitamos do seu Consentimento

A Meteoprog e os seus Fornecedores de Serviços podem armazenar e aceder a dados pessoais como cookies, identificadores do dispositivo ou outras tecnologias semelhantes existentes no seu dispositivo e processar estes dados para personalizar conteúdos e anúncios, assim como funcionalidades nas redes sociais e análise de tráfego.

  • Armazenar e/ou aceder a informações no seu dispositivo

    Os cookies, identificadores do dispositivo ou outras informações podem ser armazenados ou acedidos no seu dispositivo, para os fins acima indicados.

  • Anúncios e conteúdos personalizados, medição de anúncios e conteúdos, dados sobre o público-alvo e desenvolvimento de produtos

    Os anúncios e os conteúdos podem ser personalizados com base num perfil. Podem ser adicionados dados adicionais para uma maior personalização dos anúncios e dos conteúdos. A eficácia dos anúncios e dos conteúdos pode ser medida. Podem ser obtidas informações sobre o público que visualizou os anúncios e os conteúdos. Estes dados podem ser usados para desenvolver ou melhorar sistemas, softwares ou a experiência do utilizador.

Ao clicar em "Eu concordo”, permitirá o uso de cookies, identificadores do dispositivo e web beacons mencionados ou outras tecnologias semelhantes. As configurações do navegador do seu dispositivo podem ser alteradas.

Para certos fins, podem ser invocados interesses legítimos ao invés de consentimento. Pode ler mais informação sobre este assunto na nossa Política de Privacidade e Cookies.